Pine Ridge, SD

7:00 PM MDT on April 21, 2018 (GMT -0600)
Pine Ridge

Weather History for KIEN - September, 2013

Change the Weather History Date:

Monday, September 9, 2013

  Actual Average Record
Temperature  
Mean Temperature 70 °F 64 °F  
Max Temperature 78 °F 81 °F 99 °F (1998)
Min Temperature 62 °F 47 °F 33 °F (2001)
Degree Days  
Heating Degree Days 0 4  
Month to date heating degree days 1 29  
Since 1 July heating degree days 3 66  
Cooling Degree Days 5 3  
Month to date cooling degree days 100 36  
Year to date cooling degree days 752 684  
Growing Degree Days 20 (Base 50)    
Moisture  
Dew Point 60 °F    
Average Humidity 73    
Maximum Humidity 100    
Minimum Humidity 45    
Precipitation  
Precipitation 0.02 in 0.05 in 1.51 in (2002)
Month to date precipitation 0.05 0.50  
Year to date precipitation 14.32 14.29  
Sea Level Pressure  
Sea Level Pressure 29.84 in    
Wind  
Wind Speed 3 mph (NNW)    
Max Wind Speed 13 mph    
Max Gust Speed 16 mph    
Visibility 10 miles    
Events Rain    
T = Trace of Precipitation, MM = Missing Value Source: NWS Daily Summary

Daily Weather History Graph

Daily Weather History Graph

Search for Another Location

Airport or City:

Astronomy

Sep. 09, 2013 Rise Set
Actual Time 6:23 AM MDT 7:10 PM MDT
Civil Twilight 5:54 AM MDT 7:38 PM MDT
Nautical Twilight 5:20 AM MDT 8:12 PM MDT
Astronomical Twilight 4:45 AM MDT 8:48 PM MDT
Moon 10:55 AM MDT (9/9) 9:19 PM MDT (9/9)
Length of Visible Light 13h 44m
Length of Day
12h 46m
Waxing Crescent, 19% of the Moon is Illuminated
Sep 9
Waxing Crescent
Sep 12
First Quarter
Sep 19
Full
Sep 26
Last Quarter
Oct 4
New

Hourly Weather History & Observations

Time (MDT) Temp. Dew Point Humidity Pressure Visibility Wind Dir Wind Speed Gust Speed Precip Events Conditions
12:52 AM 64.0 °F 64.0 °F 100% 29.73 in 10.0 mi SW 4.6 mph - N/A   Clear
1:52 AM 64.9 °F 64.0 °F 97% 29.74 in 10.0 mi West 4.6 mph - N/A   Clear
2:52 AM 64.9 °F 64.0 °F 97% 29.74 in 10.0 mi WSW 3.5 mph - N/A   Clear
3:52 AM 64.9 °F 63.0 °F 93% 29.74 in 10.0 mi Calm Calm - N/A   Clear
4:52 AM 64.0 °F 62.1 °F 93% 29.73 in 10.0 mi Calm Calm - N/A   Clear
5:52 AM 64.9 °F 62.1 °F 90% 29.75 in 10.0 mi West 5.8 mph - 0.00 in Rain Light Rain
6:52 AM 66.0 °F 62.1 °F 87% 29.80 in 10.0 mi North 8.1 mph - N/A   Scattered Clouds
7:35 AM 64.4 °F 60.8 °F 88% 29.92 in 10.0 mi WNW 4.6 mph - N/A   Overcast
7:44 AM 64.4 °F 60.8 °F 88% 29.91 in 10.0 mi NNW 8.1 mph - N/A   Mostly Cloudy
7:52 AM 66.0 °F 60.1 °F 81% 29.82 in 10.0 mi North 8.1 mph - N/A   Overcast
8:52 AM 68.0 °F 59.0 °F 73% 29.84 in 10.0 mi Variable 3.5 mph - N/A   Scattered Clouds
9:52 AM 71.1 °F 57.9 °F 63% 29.85 in 10.0 mi Calm Calm - N/A   Partly Cloudy
10:52 AM 73.0 °F 55.0 °F 53% 29.86 in 10.0 mi Variable 3.5 mph - N/A   Mostly Cloudy
11:52 AM 75.9 °F 53.1 °F 45% 29.85 in 10.0 mi NNW 8.1 mph - N/A   Clear
12:52 PM 75.0 °F 55.0 °F 50% 29.85 in 10.0 mi North 5.8 mph - N/A   Partly Cloudy
1:52 PM 78.1 °F 55.0 °F 45% 29.83 in 10.0 mi Calm Calm - N/A   Partly Cloudy
2:52 PM 73.9 °F 57.0 °F 55% 29.83 in 10.0 mi NNE 6.9 mph - 0.00 in Rain Light Rain
3:52 PM 73.0 °F 55.0 °F 53% 29.86 in 10.0 mi North 5.8 mph - 0.00 in   Overcast
4:52 PM 69.1 °F 59.0 °F 70% 29.89 in 10.0 mi NNW 3.5 mph - 0.01 in Rain Light Rain
5:52 PM 68.0 °F 61.0 °F 78% 29.88 in 10.0 mi East 4.6 mph - 0.00 in Rain Light Rain
6:52 PM 66.9 °F 57.9 °F 73% 29.88 in 10.0 mi North 4.6 mph - 0.00 in   Overcast
7:52 PM 64.0 °F 60.1 °F 87% 29.91 in 10.0 mi Calm Calm - 0.00 in Rain Light Rain
8:52 PM 64.0 °F 61.0 °F 90% 29.92 in 10.0 mi Calm Calm - 0.00 in   Overcast
9:52 PM 63.0 °F 61.0 °F 93% 29.90 in 10.0 mi Calm Calm - N/A   Mostly Cloudy
10:52 PM 63.0 °F 61.0 °F 93% 29.93 in 10.0 mi Calm Calm - N/A   Overcast
11:52 PM 63.0 °F 60.1 °F 90% 29.92 in 10.0 mi Calm Calm - N/A   Overcast